Showing default

DODGE 1, 2867

Orbit data source: Space-Track

DODGE 1, 2867 is a payload satellite owned by USN NAVAIR (US) in GEO that was launched on Sat, 01 Jul 1967 UTC via a TITAN IIIC launch vehicle from the Air Force Eastern Test Range (AFETR). Payload-class satellites include a variety of spacecraft equipped with specific instruments for various scientific and technological missions. These include communications satellites like Starlink; space stations such as the ISS; scientific satellites like the Hubble; Earth observation satellites from companies like Planet Labs, Umbra, and HawkEye 360; GPS; miniature CubeSats for education and research; and military/defense satellites.

Not visible in the next 10 days
Identifier
2867, 1967-066F
Orbit
GEO
Country
Flag of USUS
Related business
Manufacturer
APL
Mission
Spacecraft
Bus & Motor
DODGE, Unknown motor
Mass
195 kg wet, 195 kg dry
Launch date (UTC)
1967-07-01 (58 years ago)
Launch vehicle
TITAN IIIC
Launch site
Air Force Eastern Test Range (AFETR)
Object type
Payload
Rocket body
Debris
Shape & HBR
Unknown
Radar Cross Section
Large (>1 m²)

Expand to show TLE details & history
Last TLE update: 8 hours ago

TLE from 8 hours ago
0 DODGE 1
1 02867U 67066F   25348.93370414 -.00000096  00000-0  00000-0 0  9997
2 02867   2.0722 104.1700 0055137 182.7144 223.4957  1.09168239131375
Epoch: 2025-12-14T22:24Z
TLE epoch observation values (Epoch: 2025-12-14T22:24:32.037Z)
Latitude
1.48929°
Longitude
89.94627°
Altitude
33,622.581 km
Speed
3.15 km/s
True Right ascension
09h 59m 40s
True Declination
1° 29' 16"
Sunlit
Object was in daylight at epoch
Visualization orbit readout
Latitude
Unknown
Longitude
Unknown
Altitude
Unknown
Speed
Unknown
Apparent Right ascension
Unknown
Apparent Declination
Unknown
Sunlit
N/A
Visualization observer readout
Local Sidereal Time
05:18:01
Azimuth
Unknown
Elevation
Unknown
Doppler factor
Unknown
Orbital elements
Apogee altitude
33,684.352 km
Perigee altitude
33,244.989 km
Semi-major axis
39,842.807 km
Eccentricity
0.00551
Inclination
2.0722°
RAAN
104.17°
Arg. of periapsis
182.7144°
True anomaly
223.06298°
Mean anomaly
223.4957°
Eccentric anomaly
223.27913°
Mean motion
0.27291 °/min
Orbital period
1,319.12 mins
BSTAR
0
Loading maneuver chart data...
Computing Atmospheric mass density...
Loading historical data...
Loading historical data...
Loading historical data...
Loading historical data...
Loading historical data...
Loading historical data...
Loading historical data...

Documentation

Showing up to 5 results
|